Regional Weather Roundup
Issued by NWS Little Rock, AR

Home | Current Version | Previous Version | Text Only | Print | Product List | Glossary Off
Versions: 1 2 3 4 5 6 7 8 9 10 11 12 13 14 15 16 17 18 19 20 21 22 23 24 25 26 27 28 29 30 31

000
ASUS44 KLZK 210612
RWRLZK

WEATHER ROUNDUP FOR ARKANSAS
NATIONAL WEATHER SERVICE LITTLE ROCK AR
1200 AM CST SAT JAN 21 2017

NOTE: "FAIR" INDICATES FEW OR NO CLOUDS BELOW 12,000 FEET WITH NO
SIGNIFICANT WEATHER AND/OR OBSTRUCTIONS TO VISIBILITY.

ARZ001-003-010-029-210700-
NORTHWEST ARKANSAS

CITY           SKY/WX    TMP DP  RH WIND       PRES   REMARKS
FAYETTEVILLE   CLEAR     54  40  59 S13       29.59F
6HR MIN TEMP:  54; 6HR MAX TEMP:  58;

FORT SMITH     CLEAR     46  38  73 NE5       29.61S
6HR MIN TEMP:  46; 6HR MAX TEMP:  64;

HARRISON       CLEAR     58  39  49 S13       29.61S
6HR MIN TEMP:  53; 6HR MAX TEMP:  61;

BENTONVILLE    CLEAR    N/A N/A N/A S12       29.58R
ROGERS         CLEAR     55  40  56 S13       29.58S
6HR MIN TEMP:  55; 6HR MAX TEMP:  60;

SILOAM SPGS    CLEAR     55  39  54 S15       29.57S
6HR MIN TEMP:  54; 6HR MAX TEMP:  59;

HIGHFILL       CLEAR     56  40  55 S13       29.57S
6HR MIN TEMP:  53; 6HR MAX TEMP:  61;

$$

ARZ004-005-016-210700-
NORTH CENTRAL ARKANSAS

CITY           SKY/WX    TMP DP  RH WIND       PRES   REMARKS
BATESVILLE     PTCLDY    54  46  76 CALM      29.67F
6HR MIN TEMP:  54; 6HR MAX TEMP:  61;

FLIPPIN        CLEAR     48  39  71 CALM      29.60S
6HR MIN TEMP:  48; 6HR MAX TEMP:  63;

MTN HOME       CLEAR     52  43  71 S7        29.62S
6HR MIN TEMP:  51; 6HR MAX TEMP:  61;

$$

ARZ040-041-210700-
WEST CENTRAL ARKANSAS

CITY           SKY/WX    TMP DP  RH WIND       PRES   REMARKS
MENA           CLEAR     63  54  72 SW9       29.65F
MOUNT IDA      CLEAR     63  48  58 VRB6      29.63F
6HR MIN TEMP:  55; 6HR MAX TEMP:  65;

$$

ARZ009-017-025-026-028-210700-
NORTHEAST ARKANSAS

CITY           SKY/WX    TMP DP  RH WIND       PRES   REMARKS
CORNING        FAIR      55  52  88 SW10      29.68R
JONESBORO      MOCLDY    52  50  93 CALM      29.68S
6HR MIN TEMP:  50; 6HR MAX TEMP:  59;

NEWPORT        CLOUDY    54  50  86 E3        29.68S
6HR MIN TEMP:  52; 6HR MAX TEMP:  59;

WALNUT RIDGE   CLOUDY    52  46  82 S5        29.68R
6HR MIN TEMP:  52; 6HR MAX TEMP:  57;

BLYTHEVILLE    MOCLDY    58  53  84 S7        29.70R
6HR MIN TEMP:  58; 6HR MAX TEMP:  61;

$$

ARZ022-023-033-042-044-210700-
CENTRAL ARKANSAS

CITY           SKY/WX    TMP DP  RH WIND       PRES   REMARKS
LITTLE ROCK    CLOUDY    50  49  96 CALM      29.68F
6HR MIN TEMP:  48; 6HR MAX TEMP:  61;

N LITTLE ROCK    N/A     56  50  80 CALM      29.69F
6HR MIN TEMP:  56; 6HR MAX TEMP:  63;

JACKSONVILLE   MOCLDY    60  51  74 S6        29.67F
6HR MIN TEMP:  59; 6HR MAX TEMP:  64;

SEARCY         CLOUDY    59  51  75 S10       29.69F
6HR MIN TEMP:  52; 6HR MAX TEMP:  62;

HOT SPRINGS    PTCLDY    56  49  77 CALM      29.67F
6HR MIN TEMP:  56; 6HR MAX TEMP:  64;

RUSSELLVILLE   CLEAR     56  45  66 SE5       29.65S
6HR MIN TEMP:  49; 6HR MAX TEMP:  59;

$$

ARZ036-210700-
EAST ARKANSAS

CITY           SKY/WX    TMP DP  RH WIND       PRES   REMARKS
WEST MEMPHIS   CLOUDY    61  56  83 S9        29.69S
6HR MIN TEMP:  58; 6HR MAX TEMP:  63;

$$

ARZ050-053-066-070-073-210700-
SOUTHWEST ARKANSAS

CITY           SKY/WX    TMP DP  RH WIND       PRES   REMARKS
ARKADELPHIA    FAIR      52  51  97 SE5       29.67F
6HR MIN TEMP:  51; 6HR MAX TEMP:  58;

CAMDEN         MOCLDY    54  50  87 CALM      29.67F
TEXARKANA      CLOUDY    59  53  80 S6        29.66F
6HR MIN TEMP:  57; 6HR MAX TEMP:  65;

EL DORADO      MOCLDY    61  56  83 SE3       29.69F
6HR MIN TEMP:  60; 6HR MAX TEMP:  65;

DE QUEEN       CLEAR     45  45 100 CALM      29.64F
6HR MIN TEMP:  44; 6HR MAX TEMP:  66;

$$

ARZ056-057-069-210700-
SOUTHEAST ARKANSAS

CITY           SKY/WX    TMP DP  RH WIND       PRES   REMARKS
PINE BLUFF     CLOUDY    58  51  78 CALM      29.67F
6HR MIN TEMP:  56; 6HR MAX TEMP:  63;

STUTTGART      CLOUDY    57  46  67 SE9       29.69F
6HR MIN TEMP:  57; 6HR MAX TEMP:  63;

MONTICELLO     CLOUDY    65  54  67 S8        29.70S
6HR MIN TEMP:  61; 6HR MAX TEMP:  66;


$$






USA.gov is the U.S. government's official web portal to all federal, state and local government web resources and services.